This is the latest recevied weather packets stored in our database for station/object SP9KB-13. If no packets are shown the sender has not sent any weather packets the latest 10 day(s).
| Time | Temp. | Humidity | Pressure | Rain* | Wind** | Luminosity | Snow |
|---|---|---|---|---|---|---|---|
| 1777757939 | 2.22° C | 93% | 1003.8 hPa | 0 mm | - | - | - |
| 1777757638 | 2.22° C | 92% | 1003.8 hPa | 0 mm | - | - | - |
| 1777757338 | 2.78° C | 92% | 1003.9 hPa | 0 mm | - | - | - |
| 1777757037 | 2.78° C | 92% | 1003.7 hPa | 0 mm | - | - | - |
| 1777756737 | 2.78° C | 90% | 1003.7 hPa | 0 mm | - | - | - |
| 1777756436 | 3.33° C | 91% | 1003.7 hPa | 0 mm | - | - | - |
| 1777756136 | 3.33° C | 90% | 1003.7 hPa | 0 mm | - | - | - |
| 1777755835 | 3.33° C | 90% | 1003.7 hPa | 0 mm | - | - | - |
| 1777755535 | 3.33° C | 90% | 1003.9 hPa | 0 mm | - | - | - |
| 1777755234 | 3.33° C | 90% | 1003.9 hPa | 0 mm | - | - | - |
| 1777754933 | 3.33° C | 91% | 1003.6 hPa | 0 mm | - | - | - |
| 1777754633 | 2.78° C | 91% | 1003.8 hPa | 0 mm | - | - | - |
| 1777754332 | 3.33° C | 90% | 1003.9 hPa | 0 mm | - | - | - |
| 1777754031 | 3.33° C | 89% | 1003.8 hPa | 0 mm | - | - | - |
| 1777753731 | 3.33° C | 89% | 1003.8 hPa | 0 mm | - | - | - |
| 1777753430 | 3.89° C | 89% | 1003.7 hPa | 0 mm | - | - | - |
| 1777753130 | 4.44° C | 86% | 1003.8 hPa | 0 mm | - | - | - |
| 1777752829 | 4.44° C | 88% | 1003.7 hPa | 0 mm | - | - | - |
| 1777752529 | 3.89° C | 88% | 1003.7 hPa | 0 mm | - | - | - |
| 1777752228 | 4.44° C | 88% | 1003.7 hPa | 0 mm | - | - | - |
| 1777751928 | 4.44° C | 86% | 1003.6 hPa | 0 mm | - | - | - |
| 1777751627 | 4.44° C | 85% | 1003.5 hPa | 0 mm | - | - | - |
| 1777751326 | 5° C | 85% | 1003.4 hPa | 0 mm | - | - | - |
| 1777751026 | 5° C | 84% | 1003.7 hPa | 0 mm | - | - | - |
| 1777750725 | 5° C | 84% | 1003.6 hPa | 0 mm | - | - | - |
* Rain latest hour (hover to see other rain measurements)
** Current wind speed in m/s (hover to see current wind gust speed)